Date String (YYYY-MM-DD hh:mm:ss) UTC,Instrument flags,Ambient pressure (hPa),Sample flow (lpm),Bypass flow (lpm),Sample temperature (°C),Ambient temperature (°C),ASC tube jacket temperature (°C),LED temperature (°C),Box temperature (°C),Sample RH (%),Span deviation,Mass concentration (μg/m³),Mass concentration (μg/m³),Mass concentration (μg/m³)
DateTimeUTC,F1_M11,P_M11,Q1_M11,Q2_M11,T1_M11,T2_M11,T3_M11,T4_M11,T5_M11,U1_M11,ZSPAN_M11,X0_M11,X2_M11,X1_M11
2021-11-09 19:00:00,,0827.3,4.99,0.00,27.1,26.3,00.0,35.9,29.0,16.5,-001.0,0030.22,0017.46,0015.75
2021-11-09 19:01:00,,0827.2,5.00,0.00,27.1,26.4,00.0,35.9,29.0,16.5,-001.0,0030.09,0017.47,0015.74
2021-11-09 19:02:00,,0827.2,5.00,0.00,27.1,26.4,00.0,35.9,29.0,16.4,-000.8,0029.03,0017.43,0015.71
2021-11-09 19:03:00,,0827.2,5.01,0.00,27.1,26.4,00.0,36.0,29.0,16.4,-001.0,0028.83,0017.44,0015.69
2021-11-09 19:04:00,,0827.2,4.99,0.00,27.1,26.4,00.0,36.0,29.0,16.4,-001.1,0028.69,0017.45,0015.70
2021-11-09 19:05:00,,0827.2,5.00,0.00,27.2,26.4,00.0,36.0,29.1,16.4,-001.3,0029.28,0017.45,0015.70
2021-11-09 19:06:00,,0827.2,5.00,0.00,27.2,26.4,00.0,36.0,29.1,16.4,-001.5,0029.15,0017.43,0015.70
2021-11-09 19:07:00,,0827.2,4.99,0.00,27.2,26.4,00.0,36.0,29.1,16.4,-001.4,0028.25,0017.42,0015.73
2021-11-09 19:08:00,,0827.2,4.99,0.00,27.2,26.4,00.0,36.1,29.1,16.4,-001.4,0027.63,0017.44,0015.76
2021-11-09 19:09:00,,0827.2,4.99,0.00,27.2,26.4,00.0,36.1,29.1,16.4,-001.2,0027.16,0017.41,0015.77
2021-11-09 19:10:00,,0827.2,5.00,0.00,27.3,26.5,00.0,36.1,29.1,16.4,-001.2,0027.26,0017.45,0015.80
2021-11-09 19:11:00,,0827.1,5.00,0.00,27.3,26.5,00.0,36.1,29.2,16.4,-001.3,0027.86,0017.45,0015.79
2021-11-09 19:12:00,,0827.3,5.00,0.00,27.3,26.5,00.0,36.1,29.2,16.4,-001.3,0027.42,0017.48,0015.78
2021-11-09 19:13:00,,0827.3,5.01,0.00,27.3,26.5,00.0,36.2,29.2,16.3,-001.4,0026.69,0017.50,0015.79
2021-11-09 19:14:00,,0827.0,4.99,0.00,27.3,26.5,00.0,36.2,29.2,16.3,-001.2,0026.74,0017.48,0015.81
2021-11-09 19:15:00,,0827.0,5.00,0.00,27.3,26.5,00.0,36.2,29.2,16.3,-000.9,0026.59,0017.46,0015.81
2021-11-09 19:16:00,,0827.0,4.99,0.00,27.3,26.6,00.0,36.2,29.2,16.3,-000.7,0025.77,0017.41,0015.79
2021-11-09 19:17:00,,0827.1,5.00,0.00,27.3,26.6,00.0,36.2,29.2,16.3,-000.5,0025.51,0017.41,0015.80
2021-11-09 19:18:00,,0826.9,5.01,0.00,27.4,26.6,00.0,36.2,29.3,16.3,-000.5,0025.61,0017.40,0015.83
2021-11-09 19:19:00,,0826.9,5.00,0.00,27.4,26.6,00.0,36.3,29.3,16.3,-000.6,0026.19,0017.35,0015.83
2021-11-09 19:20:00,,0827.0,5.00,0.00,27.4,26.7,00.0,36.3,29.3,16.3,-000.5,0027.99,0017.44,0015.84
2021-11-09 19:21:00,,0826.9,5.00,0.00,27.4,26.7,00.0,36.3,29.3,16.3,-000.3,0028.67,0017.47,0015.87
2021-11-09 19:22:00,,0827.0,5.01,0.00,27.4,26.7,00.0,36.3,29.3,16.3,-000.1,0028.76,0017.48,0015.88
2021-11-09 19:23:00,,0827.0,4.99,0.00,27.4,26.7,00.0,36.3,29.3,16.2,0000.0,0028.55,0017.46,0015.90
2021-11-09 19:24:00,,0827.1,5.00,0.00,27.5,26.7,00.0,36.3,29.3,16.2,0000.0,0028.60,0017.47,0015.89
2021-11-09 19:25:00,,0826.8,5.00,0.00,27.5,26.7,00.0,36.3,29.4,16.2,-000.1,0028.37,0017.48,0015.87
2021-11-09 19:26:00,,0826.8,5.01,0.00,27.5,26.7,00.0,36.4,29.4,16.2,-000.1,0027.92,0017.52,0015.88
2021-11-09 19:27:00,,0826.8,5.00,0.00,27.5,26.7,00.0,36.4,29.4,16.2,-000.2,0028.26,0017.56,0015.86
2021-11-09 19:28:00,,0826.8,5.00,0.00,27.5,26.7,00.0,36.4,29.4,16.2,-000.5,0028.36,0017.53,0015.83
2021-11-09 19:29:00,,0826.7,5.00,0.00,27.5,26.7,00.0,36.4,29.4,16.2,-000.7,0028.71,0017.54,0015.80
2021-11-09 19:30:00,,0826.8,4.99,0.00,27.5,26.7,00.0,36.4,29.4,16.1,-000.5,0028.58,0017.53,0015.79
2021-11-09 19:31:00,,0826.7,5.01,0.00,27.6,26.7,00.0,36.4,29.4,16.1,-000.7,0027.02,0017.50,0015.78
2021-11-09 19:32:00,,0826.7,5.00,0.00,27.6,26.8,00.0,36.4,29.4,16.0,-000.9,0027.12,0017.50,0015.78
2021-11-09 19:33:00,,0826.7,5.00,0.00,27.6,26.8,00.0,36.5,29.4,16.1,-001.0,0026.53,0017.46,0015.78
2021-11-09 19:34:00,,0826.7,4.99,0.00,27.6,26.8,00.0,36.5,29.4,16.1,-001.3,0026.99,0017.45,0015.78
2021-11-09 19:35:00,,0826.6,5.00,0.00,27.6,26.9,00.0,36.5,29.5,16.1,-001.5,0027.53,0017.41,0015.73
2021-11-09 19:36:00,,0826.5,5.00,0.00,27.6,26.9,00.0,36.5,29.5,16.0,-001.6,0028.67,0017.33,0015.72
2021-11-09 19:37:00,,0826.5,5.00,0.00,27.6,26.9,00.0,36.5,29.5,16.0,-001.8,0029.26,0017.24,0015.69
2021-11-09 19:38:00,,0826.5,4.99,0.00,27.7,26.9,00.0,36.5,29.5,16.0,-001.8,0028.67,0017.19,0015.69
2021-11-09 19:39:00,,0826.5,4.99,0.00,27.7,26.9,00.0,36.6,29.6,15.9,-001.6,0028.78,0017.18,0015.68
2021-11-09 19:40:00,,0826.5,5.01,0.00,27.7,26.9,00.0,36.6,29.6,15.9,-001.3,0028.20,0017.12,0015.69
2021-11-09 19:41:00,,0826.5,5.00,0.00,27.7,27.0,00.0,36.6,29.6,15.9,-001.4,0028.60,0017.12,0015.69
2021-11-09 19:42:00,,0826.5,5.01,0.00,27.7,27.0,00.0,36.6,29.6,16.0,-001.3,0028.77,0017.07,0015.66
2021-11-09 19:43:00,,0826.5,4.99,0.00,27.7,27.0,00.0,36.6,29.6,15.9,-001.3,0028.52,0017.04,0015.61
2021-11-09 19:44:00,,0826.5,5.00,0.00,27.8,27.0,00.0,36.7,29.6,15.9,-001.3,0029.34,0017.02,0015.56
2021-11-09 19:45:00,,0826.5,4.99,0.00,27.8,27.0,00.0,36.7,29.6,15.8,-001.1,0028.85,0017.01,0015.52
2021-11-09 19:46:00,,0826.5,5.00,0.00,27.8,27.0,00.0,36.7,29.7,15.8,-000.9,0028.05,0016.96,0015.52
2021-11-09 19:47:00,,0826.5,5.00,0.00,27.8,27.0,00.0,36.7,29.7,15.8,-001.0,0026.63,0016.94,0015.50
2021-11-09 19:48:00,,0826.5,5.00,0.00,27.8,27.0,00.0,36.7,29.7,15.8,-000.7,0026.22,0016.93,0015.50
2021-11-09 19:49:00,,0826.5,5.00,0.00,27.8,27.0,00.0,36.7,29.7,15.8,-000.6,0026.18,0016.87,0015.48
2021-11-09 19:50:00,,0826.5,5.01,0.00,27.8,27.0,00.0,36.7,29.7,15.7,-000.6,0025.93,0016.85,0015.49
2021-11-09 19:51:00,,0826.5,4.98,0.00,27.8,27.0,00.0,36.7,29.7,15.7,-000.6,0026.65,0016.93,0015.47
2021-11-09 19:52:00,,0826.5,5.00,0.00,27.8,27.0,00.0,36.7,29.7,15.7,-000.5,0026.53,0016.94,0015.44
2021-11-09 19:53:00,,0826.4,5.00,0.00,27.8,27.1,00.0,36.8,29.7,15.7,-000.3,0027.52,0017.02,0015.45
2021-11-09 19:54:00,,0826.4,5.00,0.00,27.8,27.1,00.0,36.8,29.7,15.7,-000.3,0027.33,0016.99,0015.46
2021-11-09 19:55:00,,0826.4,5.00,0.00,27.9,27.1,00.0,36.8,29.7,15.7,-000.2,0026.45,0016.99,0015.48
2021-11-09 19:56:00,,0826.3,5.00,0.00,27.9,27.1,00.0,36.8,29.7,15.7,-000.2,0026.83,0017.02,0015.50
2021-11-09 19:57:00,,0826.3,5.01,0.00,27.9,27.1,00.0,36.8,29.7,15.7,-000.1,0027.00,0017.08,0015.52
2021-11-09 19:58:00,,0826.3,5.00,0.00,27.9,27.1,00.0,36.8,29.7,15.7,0000.1,0027.55,0017.08,0015.53
2021-11-09 19:59:00,,0826.3,5.00,0.00,27.9,27.1,00.0,36.8,29.7,15.7,-000.0,0027.76,0017.15,0015.52
